Sant Hilari Sacalm





Hora UTC 15:55
Temperatura 20.7 ºC
Humitat 79.0 %
Pressió 1014.6 hPa
Pluja 0.2 mm
Velocitat vent 0.0 km/h
Direcció vent NE
Radiació solar 134.0 W/m²

Dades diàries 2019-09-20



Hora UTC (hivern +1h; estiu +2h)
Temperatura (ºC) Humitat (%) Pressió (hPa) Velocitat vent (km/h) Precipitació (mm) Radiació solar (W/m²)
Hora UTC Aire Humitat Pressió Vel. Dir. Vel. Max Dir. Intent. màx 5 min. Rad. Sol.
00:05 14.1 93.0 1014.8 0.0 N 0.0 0.0 0.0
00:10 14.1 93.0 1014.8 0.0 N 0.0 0.0 0.0
00:15 14.1 93.0 1014.7 0.0 N 0.0 0.0 0.0
00:20 14.0 93.0 1014.8 0.0 N 0.0 0.0 0.0
00:25 13.9 93.0 1014.7 0.0 N 0.0 0.0 0.0
00:30 13.9 93.0 1014.8 0.0 N 0.0 0.0 0.0
00:35 13.9 93.0 1014.8 0.0 N 0.0 0.0 0.0
00:40 13.9 93.0 1014.9 0.0 N 0.0 0.0 0.0
00:45 13.8 93.0 1014.8 0.0 N 0.0 0.0 0.0
00:50 13.8 93.0 1014.7 0.0 N 0.0 0.0 0.0
00:55 13.9 93.0 1014.7 0.0 N 0.0 0.0 0.0
01:00 13.9 93.0 1014.8 0.0 N 0.0 0.0 0.0
01:05 14.0 93.0 1014.7 0.0 N 0.0 0.0 0.0
01:10 14.0 93.0 1014.7 0.0 N 0.0 0.0 0.0
01:15 14.1 93.0 1014.7 0.0 N 0.0 0.0 0.0
01:20 14.1 93.0 1014.7 0.0 N 0.0 0.0 0.0
01:25 14.2 93.0 1014.7 0.0 N 0.0 0.0 0.0
01:30 14.1 93.0 1014.7 0.0 N 0.0 0.0 0.0
01:35 14.1 93.0 1014.7 0.0 N 0.0 0.0 0.0
01:40 14.1 93.0 1014.6 0.0 N 0.0 0.0 0.0
01:45 14.1 93.0 1014.7 0.0 N 0.0 0.0 0.0
01:50 14.2 93.0 1014.7 0.0 N 0.0 0.0 0.0
01:55 14.2 93.0 1014.6 0.0 N 0.0 0.0 0.0
02:00 14.2 93.0 1014.7 0.0 N 0.0 0.0 0.0
02:05 14.2 93.0 1014.6 0.0 N 0.0 0.0 0.0
02:10 14.3 93.0 1014.7 0.0 N 0.0 0.0 0.0
02:15 14.3 93.0 1014.6 0.0 N 0.0 0.0 0.0
02:20 14.3 93.0 1014.5 0.0 N 0.0 0.0 0.0
02:25 14.2 93.0 1014.6 0.0 N 0.0 0.0 0.0
02:30 14.2 93.0 1014.6 0.0 N 0.0 0.0 0.0
02:35 14.2 93.0 1014.5 0.0 N 0.0 0.0 0.0
02:40 14.3 93.0 1014.6 0.0 N 0.0 0.0 0.0
02:45 14.3 93.0 1014.6 0.0 N 0.0 0.0 0.0
02:50 14.3 93.0 1014.5 0.0 N 0.0 0.0 0.0
02:55 14.4 93.0 1014.5 0.0 N 0.0 0.0 0.0
03:00 14.4 93.0 1014.5 0.0 N 0.0 0.0 0.0
03:05 14.4 93.0 1014.5 0.0 N 0.0 0.0 0.0
03:10 14.4 93.0 1014.4 0.0 N 0.0 0.0 0.0
03:15 14.4 93.0 1014.4 0.0 N 0.0 0.0 0.0
03:20 14.4 93.0 1014.4 0.0 N 0.0 0.0 0.0
03:25 14.5 93.0 1014.3 0.0 N 0.0 0.0 0.0
03:30 14.6 93.0 1014.3 0.0 N 0.0 0.0 0.0
03:35 14.6 93.0 1014.4 0.0 N 0.0 0.0 0.0
03:40 14.6 93.0 1014.4 0.0 N 0.0 0.0 0.0
03:45 14.7 93.0 1014.4 0.0 N 0.0 0.0 0.0
03:50 14.7 93.0 1014.4 0.0 N 0.0 0.0 0.0
03:55 14.7 93.0 1014.5 0.0 N 0.0 0.0 0.0
04:00 14.7 93.0 1014.5 0.0 N 0.0 0.0 0.0
04:05 14.6 93.0 1014.5 0.0 N 0.0 0.0 0.0
04:10 14.6 93.0 1014.5 0.0 N 0.0 0.0 0.0
04:15 14.6 93.0 1014.5 0.0 N 0.0 0.0 0.0
04:20 14.6 93.0 1014.5 0.0 N 0.0 0.0 0.0
04:25 14.6 93.0 1014.5 0.0 N 0.0 0.0 0.0
04:30 14.6 93.0 1014.5 0.0 N 0.0 0.0 0.0
04:35 14.6 93.0 1014.6 0.0 N 0.0 0.0 0.0
04:40 14.6 93.0 1014.6 0.0 N 0.0 0.0 0.0
04:45 14.6 93.0 1014.6 0.0 N 0.0 0.0 0.0
04:50 14.6 93.0 1014.6 0.0 N 0.0 0.0 0.0
04:55 14.6 93.0 1014.6 0.0 N 0.0 0.0 0.0
05:00 14.5 93.0 1014.6 0.0 N 0.0 0.0 0.0
05:05 14.4 93.0 1014.7 0.0 N 0.0 0.0 0.0
05:10 14.4 93.0 1014.6 0.0 N 0.0 0.0 0.0
05:15 14.3 93.0 1014.6 0.0 N 0.0 0.0 0.0
05:20 14.2 93.0 1014.7 0.0 N 0.0 0.0 0.0
05:25 14.1 93.0 1014.7 0.0 N 0.0 0.0 0.0
05:30 14.1 93.0 1014.8 0.0 N 0.0 0.0 0.0
05:35 14.0 93.0 1014.8 0.0 N 0.0 0.0 0.0
05:40 13.9 93.0 1014.8 0.0 N 0.0 0.0 7.0
05:45 13.9 93.0 1014.8 0.0 N 0.0 0.0 11.0
05:50 13.8 93.0 1014.8 0.0 N 0.0 0.0 12.0
05:55 13.8 93.0 1014.9 0.0 N 0.0 0.0 18.0
06:00 13.8 93.0 1014.9 0.0 N 0.0 0.0 21.0
06:05 13.7 93.0 1015.0 0.0 N 0.0 0.0 25.0
06:10 13.7 93.0 1014.9 0.0 N 0.0 0.0 32.0
06:15 13.6 93.0 1015.0 0.0 N 0.0 0.0 42.0
06:20 13.6 93.0 1015.1 0.0 N 0.0 0.0 53.0
06:25 13.7 93.0 1015.1 0.0 N 0.0 0.0 54.0
06:30 13.9 93.0 1015.2 0.0 N 0.0 0.0 67.0
06:35 14.1 93.0 1015.3 0.0 N 0.0 0.0 74.0
06:40 14.1 93.0 1015.2 0.0 N 0.0 0.0 88.0
06:45 14.2 93.0 1015.3 0.0 N 0.0 0.0 98.0
06:50 14.3 93.0 1015.3 0.0 N 0.0 0.0 116.0
06:55 14.6 93.0 1015.4 0.0 N 0.0 0.0 132.0
07:00 15.0 93.0 1015.4 0.0 N 0.0 0.0 146.0
07:05 15.4 93.0 1015.6 0.0 N 0.0 0.0 162.0
07:10 15.8 93.0 1015.6 0.0 N 0.0 0.0 176.0
07:15 16.1 92.0 1015.6 0.0 N 0.0 0.0 178.0
07:20 16.3 91.0 1015.7 0.0 N 0.0 0.0 186.0
07:25 16.6 90.0 1015.9 0.0 N 0.0 0.0 199.0
07:30 17.1 90.0 1016.0 0.0 N 0.0 0.0 237.0
07:35 17.6 87.0 1016.0 0.0 N 0.0 0.0 260.0
07:40 17.9 83.0 1016.1 0.0 N 0.0 0.0 292.0
07:45 18.1 79.0 1016.2 0.0 SE 0.0 0.0 320.0
07:50 18.2 78.0 1016.2 0.0 SE 0.0 0.0 343.0
07:55 18.2 77.0 1016.2 3.2 SE 8.0 0.0 367.0
08:00 18.2 77.0 1016.2 0.0 SE 8.0 0.0 383.0
08:05 18.3 76.0 1016.3 0.0 SE 1.6 0.0 399.0
08:10 18.5 76.0 1016.3 0.0 SSW 0.0 0.0 415.0
08:15 18.6 75.0 1016.4 0.0 SE 0.0 0.0 431.0
08:20 18.8 75.0 1016.4 0.0 SE 0.0 0.0 443.0
08:25 19.1 72.0 1016.4 0.0 NNE 0.0 0.0 394.0
08:30 19.4 71.0 1016.4 0.0 NNE 0.0 0.0 408.0
08:35 19.7 69.0 1016.4 0.0 NNE 0.0 0.0 353.0
08:40 19.8 68.0 1016.5 0.0 ENE 0.0 0.0 329.0
08:45 19.8 69.0 1016.5 0.0 ENE 0.0 0.0 387.0
08:50 19.8 70.0 1016.5 0.0 ESE 0.0 0.0 367.0
08:55 19.8 70.0 1016.5 0.0 SE 0.0 0.0 297.0
09:00 19.6 71.0 1016.5 0.0 SE 0.0 0.0 339.0
09:05 19.6 70.0 1016.5 0.0 SE 0.0 0.0 388.0
09:10 19.7 69.0 1016.5 0.0 SE 0.0 0.0 374.0
09:15 19.8 72.0 1016.5 1.6 E 3.2 0.3 520.0
09:20 19.6 72.0 1016.5 1.6 NE 3.2 0.0 455.0
09:25 19.3 74.0 1016.5 1.6 ENE 3.2 0.0 429.0
09:30 19.1 76.0 1016.6 0.0 E 3.2 0.0 554.0
09:35 19.1 77.0 1016.5 0.0 E 3.2 0.0 561.0
09:40 19.3 77.0 1016.5 0.0 E 0.0 0.0 566.0
09:45 19.3 78.0 1016.6 1.6 NE 3.2 0.0 568.0
09:50 19.3 78.0 1016.6 1.6 NE 3.2 0.0 575.0
09:55 19.3 78.0 1016.5 0.0 NE 3.2 0.0 587.0
10:00 19.4 77.0 1016.5 0.0 E 3.2 0.0 575.0
10:05 19.7 77.0 1016.4 0.0 ESE 1.6 0.0 578.0
10:10 19.8 74.0 1016.5 3.2 NE 8.0 0.0 594.0
10:15 19.8 75.0 1016.5 0.0 NNE 8.0 0.0 619.0
10:20 19.8 74.0 1016.5 1.6 ENE 3.2 0.0 626.0
10:25 19.8 74.0 1016.4 4.8 ENE 8.0 0.0 629.0
10:30 19.9 75.0 1016.4 4.8 ENE 8.0 0.0 643.0
10:35 19.8 75.0 1016.5 4.8 NE 8.0 0.0 650.0
10:40 19.7 74.0 1016.6 1.6 SE 8.0 0.0 656.0
10:45 19.8 74.0 1016.5 0.0 ENE 8.0 0.0 628.0
10:50 20.1 72.0 1016.4 0.0 N 9.7 0.0 629.0
10:55 20.2 72.0 1016.4 1.6 NE 9.7 0.0 603.0
11:00 20.3 72.0 1016.3 0.0 NE 8.0 0.0 596.0
11:05 20.4 71.0 1016.3 0.0 ESE 8.0 0.0 585.0
11:10 20.2 71.0 1016.3 1.6 NNE 9.7 0.0 577.0
11:15 20.1 72.0 1016.3 3.2 E 11.3 0.0 571.0
11:20 20.2 73.0 1016.2 0.0 ESE 11.3 0.0 578.0
11:25 20.4 71.0 1016.2 1.6 E 12.9 0.0 591.0
11:30 20.4 71.0 1016.2 1.6 E 12.9 0.0 612.0
11:35 20.6 71.0 1016.1 0.0 N 17.7 0.0 629.0
11:40 20.4 70.0 1016.1 4.8 ENE 17.7 0.0 675.0
11:45 20.4 70.0 1016.0 1.6 ENE 12.9 0.0 682.0
11:50 20.5 69.0 1016.0 6.4 E 9.7 0.0 686.0
11:55 20.4 69.0 1016.1 1.6 E 14.5 0.0 670.0
12:00 20.6 70.0 1015.9 8.0 E 14.5 0.0 707.0
12:05 20.7 69.0 1015.9 6.4 SE 12.9 0.0 700.0
12:10 20.7 68.0 1015.8 11.3 ENE 12.9 0.0 684.0
12:15 20.5 68.0 1015.8 1.6 ENE 16.1 0.0 675.0
12:20 20.4 67.0 1015.8 6.4 E 16.1 0.0 670.0
12:25 20.4 68.0 1015.8 11.3 E 14.5 0.0 663.0
12:30 20.4 67.0 1015.7 6.4 E 14.5 0.0 668.0
12:35 20.6 67.0 1015.6 0.0 SE 14.5 0.0 654.0
12:40 20.7 66.0 1015.6 1.6 NE 11.3 0.0 656.0
12:45 20.7 67.0 1015.7 3.2 ESE 12.9 0.0 673.0
12:50 20.7 68.0 1015.6 3.2 E 12.9 0.0 670.0
12:55 20.8 68.0 1015.5 3.2 ENE 11.3 0.0 656.0
13:00 20.8 69.0 1015.5 16.1 ENE 17.7 0.0 246.0
13:05 20.7 68.0 1015.4 0.0 NE 17.7 0.0 649.0
13:10 20.8 69.0 1015.5 8.0 E 11.3 0.0 631.0
13:15 21.0 69.0 1015.5 6.4 ENE 11.3 0.0 626.0
13:20 20.9 69.0 1015.4 0.0 SE 8.0 0.0 668.0
13:25 21.0 70.0 1015.4 0.0 ENE 9.7 0.0 686.0
13:30 21.2 69.0 1015.4 1.6 E 11.3 0.0 671.0
13:35 21.2 69.0 1015.3 1.6 ENE 11.3 0.0 599.0
13:40 21.2 68.0 1015.2 9.7 E 12.9 0.0 241.0
13:45 21.1 68.0 1015.2 1.6 ENE 16.1 0.0 615.0
13:50 21.1 68.0 1015.2 1.6 NE 16.1 0.0 635.0
13:55 21.2 68.0 1015.2 8.0 NNE 14.5 0.0 612.0
14:00 21.3 67.0 1015.2 1.6 E 12.9 0.0 603.0
14:05 21.3 68.0 1015.1 1.6 ENE 14.5 0.0 591.0
14:10 21.4 67.0 1015.1 1.6 E 14.5 0.0 587.0
14:15 21.4 68.0 1015.1 1.6 ESE 8.0 0.0 142.0
14:20 21.3 69.0 1015.1 0.0 ESE 3.2 0.0 533.0
14:25 21.3 70.0 1015.2 0.0 E 16.1 0.0 536.0
14:30 21.2 71.0 1014.9 4.8 SE 16.1 0.0 506.0
14:35 21.3 72.0 1014.8 11.3 ENE 14.5 0.0 550.0
14:40 21.2 73.0 1014.8 3.2 ENE 16.1 0.0 554.0
14:45 21.2 74.0 1014.7 11.3 ENE 17.7 0.0 545.0
14:50 21.0 75.0 1014.7 6.4 NE 17.7 0.0 214.0
14:55 20.8 76.0 1014.6 8.0 ESE 14.5 0.0 482.0
15:00 20.8 77.0 1014.5 8.0 ESE 14.5 0.0 466.0
15:05 20.9 76.0 1014.5 3.2 ENE 14.5 0.0 209.0
15:10 21.0 76.0 1014.5 1.6 NE 12.9 0.0 513.0
15:15 21.1 76.0 1014.5 6.4 E 9.7 0.0 478.0
15:20 21.2 76.0 1014.5 1.6 E 9.7 0.0 480.0
15:25 21.1 76.0 1014.5 0.0 ENE 6.4 0.0 169.0
15:30 20.7 78.0 1014.6 3.2 ENE 16.1 0.0 158.0
15:35 20.6 79.0 1014.4 6.4 NE 16.1 0.0 374.0
15:40 20.7 79.0 1014.5 8.0 ENE 8.0 0.0 352.0
15:45 20.7 79.0 1014.5 0.0 E 11.3 0.0 171.0
15:50 20.7 79.0 1014.6 0.0 NE 1.6 0.0 139.0
15:55 20.7 79.0 1014.6 0.0 NE 1.6 0.0 134.0
Màxima 21.4 93.0 1016.6 16.1 ENE 17.7 0.3 707.0
Mínima 13.6 66.0 1014.3
Total 0.3